Weather History for Hatteras, NC

Change the Weather History Date:

Thursday, August 21, 2014

  Actual Average Record
Temperature  
Mean Temperature 79 °F 78 °F  
Max Temperature 85 °F 84 °F 94 °F (1968)
Min Temperature 73 °F 73 °F 62 °F (1995)
Degree Days  
Heating Degree Days 0 0  
Month to date heating degree days 0 0  
Since 1 June heating degree days 0 3  
Since 1 July heating degree days 0 0  
Cooling Degree Days 14 13  
Month to date cooling degree days 292 290  
Year to date cooling degree days 1239 1178  
Since 1 June cooling degree days 1003 1035  
Growing Degree Days 28 (Base 50)    
Moisture  
Dew Point 76 °F    
Average Humidity 87    
Maximum Humidity 100    
Minimum Humidity 74    
Precipitation  
Precipitation 0.00 in 0.23 in 1.77 in (1988)
Month to date precipitation 9.85 4.47  
Year to date precipitation 40.85 34.73  
Snow  
Snow 0.00 in - - ()
Month to date snowfall 0.0  
Since 1 July snowfall 0.0  
Snow Depth 0.00 in    
Sea Level Pressure  
Sea Level Pressure 30.03 in    
Wind  
Wind Speed 5 mph (SW)    
Max Wind Speed 9 mph    
Max Gust Speed 13 mph    
Visibility 10 miles    
Events      
T = Trace of Precipitation, MM = Missing Value Source: NWS Daily Summary

Daily Weather History Graph

Daily Weather History Graph

Search for Another Location

Airport:

Trip Planner

Search our weather history database for the weather conditions in past years. The results will help you decide how hot, cold, wet, or windy it might be!

Date:

Astronomy

Aug. 21, 2014 Rise Set
Actual Time 6:26 AM EDT 7:43 PM EDT
Civil Twilight 6:00 AM EDT 8:10 PM EDT
Nautical Twilight 5:28 AM EDT 8:41 PM EDT
Astronomical Twilight 4:55 AM EDT 9:14 PM EDT
Moon 2:58 AM EDT (8/21) 5:07 PM EDT (8/21)
Length of Visible Light 14h 10m
Length of Day
13h 17m
Waning Crescent, 13% of the Moon is Illuminated
Aug 21
Waning Crescent
Aug 25
New
Sep 2
First Quarter
Sep 8
Full
Sep 15
Last Quarter

Hourly Weather History & Observations

Time (EDT) Temp. Heat Index Dew Point Humidity Pressure Visibility Wind Dir Wind Speed Gust Speed Precip Events Conditions
12:51 AM 73.0 °F - 72.0 °F 96% 30.04 in 10.0 mi Calm Calm - N/A   Partly Cloudy
1:51 AM 73.9 °F - 73.0 °F 97% 30.01 in 10.0 mi SE 4.6 mph - N/A   Clear
2:51 AM 77.0 °F - 73.9 °F 90% 30.01 in 10.0 mi South 4.6 mph - N/A   Clear
3:51 AM 78.1 °F - 73.9 °F 87% 30.00 in 10.0 mi SSW 4.6 mph - N/A   Clear
4:51 AM 77.0 °F - 73.9 °F 90% 30.00 in 10.0 mi SW 3.5 mph - N/A   Clear
5:51 AM 77.0 °F - 75.0 °F 94% 30.01 in 10.0 mi Calm Calm - N/A   Clear
6:51 AM 75.9 °F - 75.0 °F 97% 30.04 in 9.0 mi SW 3.5 mph - N/A   Clear
7:51 AM 80.1 °F 85.4 °F 75.9 °F 87% 30.05 in 10.0 mi WSW 4.6 mph - N/A   Clear
8:51 AM 80.1 °F 85.1 °F 75.0 °F 85% 30.06 in 10.0 mi SW 6.9 mph - N/A   Clear
9:51 AM 82.0 °F 89.4 °F 75.9 °F 82% 30.06 in 10.0 mi SSW 5.8 mph - N/A   Clear
11:51 AM 81.0 °F 87.3 °F 75.9 °F 85% 30.06 in 10.0 mi Variable 3.5 mph - N/A   Clear
12:51 PM 79.0 °F - 73.9 °F 84% 30.06 in 10.0 mi NW 4.6 mph - N/A   Mostly Cloudy
1:51 PM 82.9 °F 89.4 °F 73.9 °F 74% 30.05 in 10.0 mi SW 4.6 mph - N/A   Clear
2:51 PM 84.0 °F 92.6 °F 75.9 °F 76% 30.04 in 10.0 mi SW 5.8 mph - N/A   Mostly Cloudy
3:51 PM 84.0 °F 92.6 °F 75.9 °F 76% 30.02 in 10.0 mi SW 8.1 mph - N/A   Clear
5:51 PM 82.9 °F 91.8 °F 77.0 °F 82% 30.02 in 10.0 mi SW 6.9 mph - N/A   Clear
7:51 PM 81.0 °F 88.6 °F 78.1 °F 91% 30.01 in 10.0 mi SW 5.8 mph - N/A   Clear
8:51 PM 80.1 °F 86.4 °F 78.1 °F 94% 30.02 in 9.0 mi WSW 3.5 mph - N/A   Clear
9:51 PM 79.0 °F - 77.0 °F 94% 30.03 in 10.0 mi WSW 4.6 mph - N/A   Clear
10:51 PM 79.0 °F - 78.1 °F 97% 30.03 in 10.0 mi West 4.6 mph - N/A   Clear
11:51 PM 79.0 °F - 79.0 °F 100% 30.01 in 8.0 mi WSW 4.6 mph - N/A   Clear